This demonstration page uses our WeatherBlox Daily Observations layout. Learn more.

Left ArrowRight Arrow

Hourly Observations for July 24, 2020

Temp ( °F °C ) Dew Point ( °F °C ) Humidity (%) Winds ( mph kmh ) Pressure ( in mb ) Visibility ( mi km ) Precip ( " mm )
12:51 am 00:51 Mostly Cloudy 79 26.1 64 17.8 60 60 SE 6 9 29.80 1009 10 16 0.00 0.00
1:51 am 01:51 Partly Cloudy 77 25 64 17.8 64 64 SE 5 7 29.81 1009 10 16 0.00 0.00
2:51 am 02:51 Mostly Cloudy 76 24.4 66 18.9 72 72 ESE 6 9 29.81 1010 10 16 0.00 0.00
3:51 am 03:51 Cloudy 76 24.4 65 18.3 69 69 E 9 15 29.80 1009 10 16 0.00 0.00
4:51 am 04:51 Cloudy 75 23.9 67 19.4 76 76 SE 15 24 29.83 1010 10 16 0.00 0.00
5:22 am 05:22 Cloudy with Thunderstorms 71 21.7 66 18.9 84 84 SSE 15 24 29.87 1011 8 13 0.00 0.00
5:31 am 05:31 Cloudy with Heavy Rain 69 20.6 68 20 96 96 SSW 14 22 29.88 1012 3 4 0.12 3.05
5:40 am 05:40 Cloudy with Heavy Rain 69 20.6 69 20.6 100 100 SW 8 13 29.87 1012 1 2 0.24 6.10
5:44 am 05:44 Cloudy with Heavy Rain 69 20.6 68 20 96 96 Calm 29.86 1011 1 1 0.39 9.91
5:55 am 05:55 Cloudy with Light Rain 69 20.6 68 20 96 96 Calm 29.86 1011 4 6 0.00 0.00
6:51 am 06:51 Mostly Cloudy 71 21.7 69 20.6 94 94 SW 3 6 29.87 1012 10 16 0.00 0.00
7:51 am 07:51 Partly Cloudy 73 22.8 68 20 84 84 W 5 7 29.88 1012 10 16 0.00 0.00
8:51 am 08:51 Mostly Cloudy 75 23.9 67 19.4 76 76 Calm 29.88 1012 10 16 0.00 0.00
9:51 am 09:51 Mostly Cloudy 78 25.6 69 20.6 74 74 Calm 29.88 1012 10 16 0.00 0.00
10:51 am 10:51 Cloudy 80 26.7 67 19.4 64 64 SE 7 11 29.88 1012 10 16 0.00 0.00
11:51 am 11:51 Cloudy 79 26.1 66 18.9 65 65 S 9 15 29.88 1012 10 16 0.00 0.00
12:51 pm 12:51 Mostly Cloudy 78 25.6 67 19.4 69 69 SSW 7 11 29.87 1011 10 16 0.00 0.00
1:51 pm 13:51 Cloudy 79 26.1 67 19.4 67 67 WSW 6 9 29.85 1011 10 16 0.00 0.00
2:51 pm 14:51 Mostly Cloudy 82 27.8 66 18.9 58 58 VRB 5 7 29.84 1011 10 16 0.00 0.00
3:51 pm 15:51 Sunny 84 28.9 66 18.9 55 55 WNW 6 9 29.81 1010 10 16 0.00 0.00
4:51 pm 16:51 Sunny 84 28.9 65 18.3 53 53 WSW 8 13 29.79 1009 10 16 0.00 0.00
5:31 pm 17:31 Sunny with Nearby Thunderstorms 83 28.3 64 17.8 53 53 SW 7 11 29.73 1007 10 16 0.00 0.00
5:48 pm 17:48 Sunny 84 29 64 18 51 51 S 8 13 29.73 1007 10 16 0.00 0.00
5:51 pm 17:51 Sunny 83 28.3 65 18.3 55 55 S 7 11 29.81 1010 10 16 0.00 0.00
6:51 pm 18:51 Cloudy 78 25.6 68 20 71 71 NNE 10 17 29.83 1010 10 16 0.00 0.00
7:51 pm 19:51 Cloudy 78 25.6 67 19.4 69 69 NE 6 9 29.83 1010 10 16 0.00 0.00
8:51 pm 20:51 Cloudy with Light Rain 77 25 68 20 74 74 SSE 3 6 29.86 1011 10 16 0.00 0.00
9:51 pm 21:51 Mostly Clear 76 24.4 68 20 77 77 ESE 5 7 29.87 1011 10 16 0.00 0.00
10:51 pm 22:51 Mostly Clear 76 24.4 71 21.7 85 85 Calm 29.86 1011 10 16 0.00 0.00
11:51 pm 23:51 Cloudy 76 24.4 71 21.7 85 85 Calm 29.86 1011 10 16 0.00 0.00

Powered by AerisWeather